George, South Africa

2:05 PM SAST on September 22, 2017 (GMT +0200)
George

Weather History for FAGG - August, 2013

Change the Weather History Date:

Thursday, August 8, 2013

  Actual Average Record
Temperature  
Mean Temperature 49 °F -  
Max Temperature 53 °F 64 °F 86 °F (2001)
Min Temperature 45 °F 46 °F 41 °F (2007)
Degree Days  
Heating Degree Days 16    
Moisture  
Dew Point 45 °F    
Average Humidity 87    
Maximum Humidity 94    
Minimum Humidity 68    
Precipitation  
Precipitation 0.31 in - - ()
Sea Level Pressure  
Sea Level Pressure 30.17 in    
Wind  
Wind Speed 13 mph ()    
Max Wind Speed 18 mph    
Max Gust Speed -    
Visibility 6.6 miles    
Events Rain    
Averages and records for this station are not official NWS values.
T = Trace of Precipitation, MM = Missing Value Source: Averaged Metar Reports

Daily Weather History Graph

Daily Weather History Graph

Search for Another Location

Airport or City:

Trip Planner

Search our weather history database for the weather conditions in past years. The results will help you decide how hot, cold, wet, or windy it might be!

Date:

Astronomy

Aug. 08, 2013 Rise Set
Actual Time 7:16 AM SAST 5:55 PM SAST
Civil Twilight 6:50 AM SAST 6:21 PM SAST
Nautical Twilight 6:20 AM SAST 6:51 PM SAST
Astronomical Twilight 5:51 AM SAST 7:21 PM SAST
Moon 7:46 AM SAST (8/8) 7:36 PM SAST (8/8)
Length of Visible Light 11h 31m
Length of Day
10h 39m
New Moon, 2% of the Moon is Illuminated
Aug 8
New Moon
Aug 14
First Quarter
Aug 21
Full
Aug 28
Last Quarter
Sep 5
New

Hourly Weather History & Observations

Time (SAST) Temp. Windchill Dew Point Humidity Pressure Visibility Wind Dir Wind Speed Gust Speed Precip Events Conditions
12:00 AM 46.4 °F 39.2 °F 42.8 °F 87% 30.04 in 4.3 mi West 18.4 mph - N/A Rain Light Rain
1:00 AM 46.4 °F 39.5 °F 42.8 °F 87% 30.04 in 6.2 mi WNW 17.3 mph - N/A Rain Light Rain
2:00 AM 46 °F - 44 °F 88% 30.09 in 5 mi WNW 16.1 mph - -  
2:00 AM 46.4 °F 39.5 °F 42.8 °F 87% 30.06 in 5.0 mi WNW 17.3 mph - N/A Rain Light Rain
3:00 AM 46.4 °F 39.5 °F 44.6 °F 93% 30.06 in 6.2 mi WNW 17.3 mph - N/A Rain Light Rain
4:00 AM 46.4 °F 39.8 °F 44.6 °F 93% 30.06 in 6.2 mi West 16.1 mph - N/A   Drizzle
5:00 AM 46 °F - 43 °F 86% 30.10 in 6 mi WNW 16.1 mph - - Rain Light Rain
5:00 AM 46.4 °F 39.8 °F 42.8 °F 87% 30.09 in 5.6 mi WNW 16.1 mph - N/A Rain Light Rain
6:00 AM 46.4 °F 39.5 °F 44.6 °F 93% 30.09 in 3.7 mi West 17.3 mph - N/A Rain Light Rain
7:00 AM 46.4 °F 40.4 °F 44.6 °F 93% 30.12 in 3.7 mi WNW 13.8 mph - N/A Rain Light Rain
8:00 AM 48 °F - 45 °F 84% 30.15 in 12 mi WNW 12.7 mph - - Rain Light Rain
8:00 AM 48.2 °F - 44.6 °F 87% 30.12 in 6.2 mi WNW 12.7 mph - N/A   Mostly Cloudy
9:00 AM 48.2 °F - 44.6 °F 87% 30.15 in 6.2 mi WNW 16.1 mph - N/A   Mostly Cloudy
10:00 AM 48.2 °F - 44.6 °F 87% 30.18 in 6.2 mi West 15.0 mph - N/A Rain Light Rain
11:00 AM 49 °F - 46 °F 85% 30.22 in 6 mi WNW 15.0 mph - - Rain Light Rain
11:00 AM 50.0 °F - 46.4 °F 87% 30.21 in 6.2 mi WNW 15.0 mph - N/A Rain Light Rain
12:00 PM 50.0 °F - 48.2 °F 94% 30.21 in 6.2 mi WNW 15.0 mph - N/A   Mostly Cloudy
1:00 PM 50.0 °F - 48.2 °F 94% 30.18 in 6.2 mi WNW 12.7 mph - N/A Rain Light Rain
2:00 PM 52 °F - 49 °F 86% 30.20 in 12 mi West 15.0 mph - - Rain Light Rain
2:00 PM 51.8 °F - 48.2 °F 88% 30.18 in 6.2 mi West 15.0 mph - N/A   Mostly Cloudy
3:00 PM 51.8 °F - 48.2 °F 88% 30.18 in 6.2 mi WNW 12.7 mph - N/A   Mostly Cloudy
4:00 PM 51.8 °F - 48.2 °F 88% 30.21 in 6.2 mi West 8.1 mph - N/A   Mostly Cloudy
5:00 PM 52 °F - 45 °F 68% 30.23 in 12 mi West 11.5 mph - -   Mostly Cloudy
5:00 PM 51.8 °F - 44.6 °F 76% 30.21 in 6.2 mi West 12.7 mph - N/A   Mostly Cloudy
6:00 PM 50.0 °F - 46.4 °F 87% 30.24 in 6.2 mi WNW 8.1 mph - N/A   Mostly Cloudy
7:00 PM 48.2 °F - 44.6 °F 87% 30.24 in 6.2 mi WNW 6.9 mph - N/A   Mostly Cloudy
8:00 PM 48 °F - 44 °F 80% 30.27 in 12 mi WNW 6.9 mph - -   Partly Cloudy
8:00 PM 48.2 °F - 44.6 °F 87% 30.27 in 6.2 mi WNW 6.9 mph - N/A   Scattered Clouds
9:00 PM 46.4 °F 42.4 °F 42.8 °F 87% 30.27 in 6.2 mi WNW 8.1 mph - N/A   Scattered Clouds
10:00 PM 46.4 °F 42.4 °F 41.0 °F 81% 30.27 in 6.2 mi WNW 8.1 mph - N/A   Mostly Cloudy
11:00 PM 46.4 °F 42.9 °F 42.8 °F 87% 30.30 in 6.2 mi West 6.9 mph - N/A   Mostly Cloudy